• In Österreich
  • Länderverzeichnis
  • Für 7 Tage
  • Wassertemperatur
  • Satellitenkarten
  • Wetterkarte
  • News
  • Widgets
  • user-avatar
    Anmelden

    Stündliche Wetter Wadzhda

    Heute, 23 Oktober, Dienstag

    Zeit Temperatur Niederschläge Wind Luftdruck Luftfeuchtigkeit
    00:00 +20°C° 0 mm 1 m/S 717 mmHg 78%
    01:00 +20°C° 0 mm 1 m/S 717 mmHg 80%
    02:00 +20°C° 0 mm 1 m/S 717 mmHg 81%
    03:00 +19°C° 0 mm 1 m/S 717 mmHg 83%
    04:00 +19°C° 0 mm 1 m/S 717 mmHg 85%
    05:00 +19°C° 0 mm 1 m/S 717 mmHg 86%
    06:00 +17°C° 0 mm 0 m/S 717 mmHg 87%
    07:00 +19°C° 0 mm 1 m/S 718 mmHg 83%
    08:00 +20°C° 0 mm 1 m/S 718 mmHg 79%
    09:00 +20°C° 0 mm 1 m/S 718 mmHg 75%
    10:00 +21°C° 0 mm 1 m/S 718 mmHg 71%
    11:00 +22°C° 0 mm 1 m/S 718 mmHg 66%
    12:00 +22°C° 0 mm 1 m/S 719 mmHg 61%
    13:00 +21°C° 0 mm 2 m/S 719 mmHg 62%
    14:00 +21°C° 0 mm 2 m/S 718 mmHg 64%
    15:00 +21°C° 0 mm 3 m/S 718 mmHg 65%
    16:00 +20°C° 0 mm 2 m/S 718 mmHg 70%
    17:00 +20°C° 0 mm 2 m/S 718 mmHg 74%
    18:00 +19°C° 0 mm 2 m/S 718 mmHg 78%
    19:00 +19°C° 0 mm 2 m/S 719 mmHg 81%
    20:00 +19°C° 0 mm 2 m/S 719 mmHg 83%
    21:00 +19°C° 0 mm 1 m/S 719 mmHg 85%
    22:00 +19°C° 0 mm 1 m/S 719 mmHg 86%
    23:00 +18°C° 0 mm 1 m/S 719 mmHg 88%

    Morgen, 24 Oktober, Mittwoch

    Zeit Temperatur Niederschläge Wind Luftdruck Luftfeuchtigkeit
    00:00 +18°C° 0 mm 1 m/S 719 mmHg 89%
    01:00 +18°C° 0 mm 1 m/S 719 mmHg 89%
    02:00 +16°C° 0 mm 1 m/S 718 mmHg 89%
    03:00 +16°C° 0 mm 1 m/S 718 mmHg 89%
    04:00 +16°C° 0 mm 1 m/S 718 mmHg 89%
    05:00 +14°C° 0 mm 0 m/S 718 mmHg 88%
    06:00 +14°C° 0 mm 0 m/S 718 mmHg 87%
    07:00 +15°C° 0 mm 0 m/S 718 mmHg 77%
    08:00 +18°C° 0 mm 1 m/S 719 mmHg 68%
    09:00 +19°C° 0 mm 1 m/S 719 mmHg 58%
    10:00 +20°C° 0 mm 1 m/S 719 mmHg 53%
    11:00 +20°C° 0 mm 2 m/S 719 mmHg 48%
    12:00 +21°C° 0 mm 3 m/S 719 mmHg 42%
    13:00 +21°C° 0 mm 3 m/S 718 mmHg 41%
    14:00 +22°C° 0 mm 3 m/S 718 mmHg 40%
    15:00 +22°C° 0 mm 3 m/S 717 mmHg 39%
    16:00 +21°C° 0 mm 3 m/S 717 mmHg 43%
    17:00 +20°C° 0 mm 2 m/S 717 mmHg 48%
    18:00 +19°C° 0 mm 2 m/S 717 mmHg 53%
    19:00 +19°C° 0 mm 1 m/S 717 mmHg 57%
    20:00 +19°C° 0 mm 1 m/S 717 mmHg 61%
    21:00 +18°C° 0 mm 1 m/S 717 mmHg 65%
    22:00 +18°C° 0 mm 1 m/S 717 mmHg 64%
    23:00 +16°C° 0 mm 1 m/S 717 mmHg 64%

    übermorgen, 25 Oktober, Donnerstag

    Zeit Temperatur Niederschläge Wind Luftdruck Luftfeuchtigkeit
    00:00 +16°C° 0 mm 1 m/S 716 mmHg 64%
    01:00 +16°C° 0 mm 1 m/S 716 mmHg 62%
    02:00 +16°C° 0 mm 1 m/S 716 mmHg 61%
    03:00 +15°C° 0 mm 1 m/S 716 mmHg 60%
    04:00 +15°C° 0 mm 1 m/S 716 mmHg 59%
    05:00 +15°C° 0 mm 1 m/S 715 mmHg 58%
    06:00 +15°C° 0 mm 1 m/S 715 mmHg 57%
    07:00 +16°C° 0 mm 2 m/S 716 mmHg 51%
    08:00 +18°C° 0 mm 2 m/S 716 mmHg 45%
    09:00 +20°C° 0 mm 2 m/S 716 mmHg 39%
    10:00 +21°C° 0 mm 2 m/S 716 mmHg 35%
    11:00 +23°C° 0 mm 2 m/S 716 mmHg 32%
    12:00 +24°C° 0 mm 2 m/S 716 mmHg 28%
    13:00 +25°C° 0 mm 2 m/S 715 mmHg 28%
    14:00 +25°C° 0 mm 2 m/S 715 mmHg 28%
    15:00 +25°C° 0 mm 2 m/S 714 mmHg 27%
    16:00 +24°C° 0 mm 2 m/S 714 mmHg 32%
    17:00 +23°C° 0 mm 2 m/S 714 mmHg 37%
    18:00 +21°C° 0 mm 2 m/S 714 mmHg 41%
    19:00 +20°C° 0 mm 2 m/S 714 mmHg 42%
    20:00 +21°C° 0 mm 1 m/S 714 mmHg 43%
    21:00 +20°C° 0 mm 1 m/S 714 mmHg 43%
    22:00 +20°C° 0 mm 1 m/S 714 mmHg 42%
    23:00 +19°C° 0 mm 2 m/S 714 mmHg 41%

    26 Oktober, Freitag

    Zeit Temperatur Niederschläge Wind Luftdruck Luftfeuchtigkeit
    00:00 +19°C° 0 mm 2 m/S 714 mmHg 40%
    01:00 +18°C° 0 mm 2 m/S 713 mmHg 42%
    02:00 +18°C° 0 mm 2 m/S 713 mmHg 44%
    03:00 +18°C° 0 mm 2 m/S 712 mmHg 45%
    04:00 +18°C° 0 mm 3 m/S 712 mmHg 45%
    05:00 +17°C° 0 mm 3 m/S 712 mmHg 45%
    06:00 +17°C° 0 mm 3 m/S 712 mmHg 44%
    07:00 +19°C° 0 mm 3 m/S 713 mmHg 41%
    08:00 +20°C° 0 mm 4 m/S 713 mmHg 37%
    09:00 +21°C° 0 mm 4 m/S 714 mmHg 33%
    10:00 +23°C° 0 mm 4 m/S 713 mmHg 32%
    11:00 +25°C° 0 mm 4 m/S 713 mmHg 31%
    12:00 +26°C° 0 mm 4 m/S 713 mmHg 29%
    13:00 +26°C° 0 mm 5 m/S 712 mmHg 30%
    14:00 +26°C° 0 mm 5 m/S 712 mmHg 31%
    15:00 +26°C° 0 mm 5 m/S 711 mmHg 32%
    16:00 +25°C° 0 mm 4 m/S 711 mmHg 37%
    17:00 +24°C° 0 mm 3 m/S 711 mmHg 42%
    18:00 +21°C° 0 mm 2 m/S 711 mmHg 47%
    19:00 +21°C° 0 mm 2 m/S 711 mmHg 47%
    20:00 +21°C° 0 mm 2 m/S 711 mmHg 47%
    21:00 +21°C° 0 mm 2 m/S 711 mmHg 47%
    22:00 +21°C° 0 mm 2 m/S 711 mmHg 48%
    23:00 +20°C° 0 mm 2 m/S 711 mmHg 49%

    27 Oktober, Samstag

    Zeit Temperatur Niederschläge Wind Luftdruck Luftfeuchtigkeit
    00:00 +20°C° 0 mm 2 m/S 711 mmHg 51%
    01:00 +20°C° 0 mm 2 m/S 710 mmHg 50%
    02:00 +20°C° 0 mm 2 m/S 710 mmHg 49%
    03:00 +20°C° 0 mm 3 m/S 710 mmHg 48%
    04:00 +19°C° 0 mm 3 m/S 710 mmHg 50%
    05:00 +19°C° 0 mm 3 m/S 710 mmHg 53%
    06:00 +19°C° 0 mm 3 m/S 710 mmHg 55%
    07:00 +19°C° 0 mm 3 m/S 710 mmHg 55%
    08:00 +19°C° 0 mm 3 m/S 710 mmHg 54%
    09:00 +20°C° 0 mm 3 m/S 710 mmHg 54%
    10:00 +21°C° 0 mm 4 m/S 710 mmHg 51%
    11:00 +22°C° 0 mm 4 m/S 709 mmHg 49%
    12:00 +22°C° 0 mm 4 m/S 709 mmHg 47%
    13:00 +22°C° 0 mm 5 m/S 708 mmHg 46%
    14:00 +23°C° 0 mm 5 m/S 708 mmHg 45%
    15:00 +23°C° 0 mm 6 m/S 707 mmHg 44%
    16:00 +22°C° 0.2 mm 5 m/S 707 mmHg 48%
    17:00 +21°C° 0.2 mm 4 m/S 706 mmHg 51%
    18:00 +20°C° 0.2 mm 3 m/S 706 mmHg 55%
    19:00 +20°C° 0.1 mm 3 m/S 706 mmHg 57%
    20:00 +19°C° 0.1 mm 3 m/S 706 mmHg 59%
    21:00 +19°C° 0.1 mm 4 m/S 706 mmHg 61%
    22:00 +18°C° 0 mm 4 m/S 706 mmHg 62%
    23:00 +17°C° 0 mm 5 m/S 705 mmHg 62%

    28 Oktober, Sonntag

    Zeit Temperatur Niederschläge Wind Luftdruck Luftfeuchtigkeit
    00:00 +17°C° 0 mm 6 m/S 705 mmHg 62%
    01:00 +16°C° 0 mm 6 m/S 704 mmHg 64%
    02:00 +16°C° 0 mm 7 m/S 704 mmHg 66%
    03:00 +16°C° 0 mm 7 m/S 703 mmHg 68%
    04:00 +15°C° 0.9 mm 8 m/S 703 mmHg 71%
    05:00 +13°C° 0.9 mm 8 m/S 703 mmHg 74%
    06:00 +13°C° 0.9 mm 9 m/S 703 mmHg 78%
    07:00 +12°C° 1.6 mm 8 m/S 704 mmHg 77%
    08:00 +12°C° 1.6 mm 8 m/S 704 mmHg 76%
    09:00 +11°C° 1.6 mm 7 m/S 704 mmHg 76%
    10:00 +10°C° 0.7 mm 7 m/S 704 mmHg 74%
    11:00 +10°C° 0.7 mm 7 m/S 705 mmHg 71%
    12:00 +10°C° 0.7 mm 7 m/S 705 mmHg 69%
    13:00 +9°C° 1 mm 6 m/S 705 mmHg 70%
    14:00 +9°C° 1 mm 6 m/S 705 mmHg 72%
    15:00 +8°C° 1 mm 5 m/S 705 mmHg 73%
    16:00 +8°C° 1 mm 5 m/S 706 mmHg 73%
    17:00 +8°C° 1 mm 5 m/S 706 mmHg 73%
    18:00 +7°C° 1 mm 5 m/S 707 mmHg 73%
    19:00 +7°C° 0.6 mm 5 m/S 707 mmHg 71%
    20:00 +7°C° 0.6 mm 6 m/S 707 mmHg 69%
    21:00 +6°C° 0.6 mm 7 m/S 707 mmHg 67%
    22:00 +6°C° 0.5 mm 7 m/S 707 mmHg 65%
    23:00 +6°C° 0.5 mm 8 m/S 707 mmHg 63%

    29 Oktober, Montag

    Zeit Temperatur Niederschläge Wind Luftdruck Luftfeuchtigkeit
    00:00 +6°C° 0.5 mm 8 m/S 707 mmHg 61%
    01:00 +6°C° 0.7 mm 8 m/S 707 mmHg 62%
    02:00 +6°C° 0.7 mm 8 m/S 707 mmHg 62%
    03:00 +5°C° 0.7 mm 8 m/S 707 mmHg 63%
    04:00 +5°C° 0.3 mm 8 m/S 707 mmHg 64%
    05:00 +5°C° 0.3 mm 7 m/S 707 mmHg 64%
    06:00 +5°C° 0.3 mm 7 m/S 707 mmHg 65%
    07:00 +5°C° 0.1 mm 8 m/S 708 mmHg 60%
    08:00 +6°C° 0.1 mm 9 m/S 708 mmHg 55%
    09:00 +6°C° 0.1 mm 10 m/S 709 mmHg 50%
    10:00 +7°C° 0 mm 10 m/S 709 mmHg 47%
    11:00 +8°C° 0 mm 10 m/S 709 mmHg 44%
    12:00 +9°C° 0 mm 11 m/S 709 mmHg 42%
    13:00 +9°C° 0.1 mm 10 m/S 709 mmHg 40%
    14:00 +9°C° 0.1 mm 10 m/S 709 mmHg 39%
    15:00 +9°C° 0.1 mm 10 m/S 709 mmHg 38%
    16:00 +10°C° 0 mm 9 m/S 709 mmHg 41%
    17:00 +9°C° 0 mm 7 m/S 710 mmHg 44%
    18:00 +9°C° 0 mm 6 m/S 710 mmHg 47%
    19:00 +8°C° 0 mm 6 m/S 710 mmHg 51%
    20:00 +8°C° 0 mm 6 m/S 711 mmHg 54%
    21:00 +8°C° 0 mm 5 m/S 711 mmHg 57%
    22:00 +7°C° 0 mm 5 m/S 711 mmHg 59%
    23:00 +7°C° 0 mm 4 m/S 711 mmHg 61%
    Mehr zeigen